Weather History for KGLE - March, 2014

Change the Weather History Date:

Saturday, March 8, 2014

  Actual Average (KDTO) Record (KDTO)
Temperature  
Mean Temperature 43 °F -  
Max Temperature 52 °F 60 °F 80 °F (2011)
Min Temperature 34 °F 39 °F 21 °F (2008)
Degree Days  
Heating Degree Days 22    
Moisture  
Dew Point 38 °F    
Average Humidity 82    
Maximum Humidity 95    
Minimum Humidity 70    
Precipitation  
Precipitation 0.00 in - - ()
Sea Level Pressure  
Sea Level Pressure 30.12 in    
Wind  
Wind Speed 11 mph (NW)    
Max Wind Speed 20 mph    
Max Gust Speed 26 mph    
Visibility 7 miles    
Events Rain    
Averages and records for this station are not official NWS values.
T = Trace of Precipitation, MM = Missing Value Source: NWS Daily Summary

Daily Weather History Graph

Daily Weather History Graph

Search for Another Location

Airport or City:

Trip Planner

Search our weather history database for the weather conditions in past years. The results will help you decide how hot, cold, wet, or windy it might be!

Date:

Astronomy

Mar. 08, 2014 Rise Set
Actual Time 6:48 AM CST 6:31 PM CST
Civil Twilight 6:23 AM CST 6:56 PM CST
Nautical Twilight 5:54 AM CST 7:24 PM CST
Astronomical Twilight 5:25 AM CST 7:53 PM CST
Moon 11:48 AM CST (3/8) 1:12 AM CST (3/8)
Length of Visible Light 12h 32m
Length of Day
11h 42m
First Quarter, 52% of the Moon is Illuminated
Mar 8
First Quarter
Mar 16
Full
Mar 23
Last Quarter
Mar 30
New
Apr 7
First Quarter

Hourly Weather History & Observations

Time (CST) Temp. Windchill Dew Point Humidity Pressure Visibility Wind Dir Wind Speed Gust Speed Precip Events Conditions
12:15 AM 50.9 °F - 41.9 °F 71% 29.86 in 10.0 mi SSE 11.5 mph - N/A   Clear
12:35 AM 50.7 °F - 42.3 °F 73% 29.87 in 10.0 mi SSE 11.5 mph - N/A   Clear
12:55 AM 50.2 °F - 42.6 °F 75% 29.90 in 10.0 mi South 3.5 mph - N/A   Clear
1:15 AM 48.2 °F - 41.7 °F 78% 29.91 in 10.0 mi SSE 5.8 mph - N/A   Clear
1:35 AM 47.3 °F - 42.1 °F 82% 29.91 in 10.0 mi Calm Calm - N/A   Clear
1:55 AM 46.9 °F - 41.5 °F 81% 29.90 in 10.0 mi SE 8.1 mph - N/A   Clear
2:15 AM 47.3 °F - 42.8 °F 84% 29.90 in 10.0 mi SE 10.4 mph - N/A   Clear
2:35 AM 48.4 °F - 43.7 °F 84% 29.90 in 10.0 mi SE 9.2 mph - N/A   Clear
2:55 AM 48.6 °F - 43.9 °F 84% 29.90 in 10.0 mi SSE 9.2 mph - N/A   Clear
3:15 AM 47.7 °F - 43.7 °F 86% 29.91 in 10.0 mi SE 5.8 mph - N/A   Clear
3:35 AM 47.3 °F - 43.9 °F 88% 29.90 in 10.0 mi ESE 6.9 mph - N/A   Clear
3:55 AM 48.4 °F - 44.8 °F 87% 29.91 in 10.0 mi SE 6.9 mph - N/A   Clear
4:15 AM 48.2 °F - 45.0 °F 89% 29.92 in 10.0 mi SE 6.9 mph - N/A   Clear
4:35 AM 48.6 °F - 45.5 °F 89% 29.92 in 10.0 mi SE 8.1 mph - N/A   Clear
4:55 AM 49.1 °F - 45.9 °F 89% 29.92 in 10.0 mi SSE 8.1 mph - N/A   Clear
5:15 AM 48.9 °F - 46.2 °F 90% 29.93 in 10.0 mi SE 8.1 mph - N/A   Clear
5:35 AM 48.2 °F - 45.7 °F 91% 29.94 in 7.0 mi SSE 5.8 mph - N/A   Clear
5:55 AM 47.5 °F - 45.7 °F 93% 29.94 in 7.0 mi ESE 5.8 mph - N/A   Clear
6:15 AM 46.9 °F - 45.5 °F 95% 29.96 in 5.0 mi SSE 6.9 mph - N/A   Clear
6:35 AM 47.8 °F - 46.6 °F 95% 29.98 in 5.0 mi South 6.9 mph - N/A   Clear
6:55 AM 48.6 °F - 47.3 °F 95% 29.98 in 5.0 mi South 8.1 mph - N/A   Scattered Clouds
7:15 AM 48.7 °F - 47.3 °F 95% 29.99 in 4.0 mi South 5.8 mph - N/A   Scattered Clouds
7:35 AM 49.5 °F - 47.7 °F 94% 30.01 in 4.0 mi SW 5.8 mph - N/A   Mostly Cloudy
7:55 AM 50.0 °F - 47.8 °F 92% 30.03 in 4.0 mi Calm Calm - N/A   Overcast
8:15 AM 51.3 °F - 48.7 °F 91% 30.05 in 5.0 mi South 3.5 mph - N/A   Mostly Cloudy
8:35 AM 52.0 °F - 48.9 °F 89% 30.07 in 5.0 mi SW 6.9 mph - N/A   Scattered Clouds
8:55 AM 46.2 °F 40.1 °F 41.2 °F 83% 30.07 in 5.0 mi NNW 13.8 mph - N/A   Haze
9:15 AM 45.3 °F 38.7 °F 41.9 °F 88% 30.09 in 3.0 mi NW 15.0 mph - N/A Rain Light Rain
9:35 AM 45.5 °F 38.9 °F 41.4 °F 85% 30.09 in 4.0 mi NNW 15.0 mph - N/A   Haze
9:55 AM 45.1 °F 38.8 °F 40.8 °F 85% 30.11 in 4.0 mi NW 13.8 mph 20.7 mph N/A   Light Drizzle
10:15 AM 44.8 °F 37.7 °F 40.5 °F 85% 30.10 in 4.0 mi NNW 16.1 mph - N/A   Overcast
10:35 AM 44.4 °F 36.9 °F 40.1 °F 85% 30.12 in 4.0 mi NNW 17.3 mph - N/A   Overcast
10:55 AM 44.1 °F 37.4 °F 39.2 °F 83% 30.15 in 4.0 mi NW 13.8 mph - N/A   Haze
11:15 AM 43.9 °F 36.8 °F 39.2 °F 84% 30.16 in 4.0 mi NW 15.0 mph - N/A   Haze
11:35 AM 43.0 °F 36.0 °F 38.8 °F 85% 30.16 in 3.0 mi NNW 13.8 mph - N/A Rain Light Rain
11:55 AM 42.8 °F 34.5 °F 38.8 °F 86% 30.15 in 3.0 mi NNW 18.4 mph 25.3 mph N/A   Overcast
12:15 PM 43.2 °F 35.3 °F 37.9 °F 82% 30.15 in 4.0 mi NNW 17.3 mph 23.0 mph N/A   Haze
12:35 PM 42.8 °F 35.1 °F 37.6 °F 82% 30.17 in 4.0 mi NNW 16.1 mph 21.9 mph N/A   Haze
12:55 PM 42.4 °F 35.7 °F 36.9 °F 81% 30.19 in 4.0 mi NW 12.7 mph 18.4 mph N/A   Haze
1:15 PM 42.1 °F 33.9 °F 36.1 °F 79% 30.19 in 4.0 mi NW 17.3 mph - N/A   Haze
1:35 PM 42.1 °F 34.9 °F 36.1 °F 79% 30.18 in 4.0 mi NW 13.8 mph - N/A   Light Drizzle
1:55 PM 41.9 °F 33.4 °F 35.1 °F 77% 30.17 in 4.0 mi NW 18.4 mph - N/A   Haze
2:15 PM 41.4 °F 33.0 °F 33.8 °F 74% 30.18 in 5.0 mi NW 17.3 mph 21.9 mph N/A Rain Light Rain
2:35 PM 41.2 °F 32.4 °F 33.4 °F 74% 30.19 in 5.0 mi NW 18.4 mph - N/A   Haze
2:55 PM 41.4 °F 33.0 °F 32.7 °F 71% 30.19 in 5.0 mi NW 17.3 mph - N/A   Haze
3:15 PM 41.0 °F 33.1 °F 32.0 °F 70% 30.21 in 5.0 mi NW 15.0 mph - N/A   Haze
3:35 PM 40.3 °F 31.0 °F 33.6 °F 77% 30.20 in 5.0 mi NNW 19.6 mph - N/A Rain Light Rain
3:55 PM 40.1 °F 31.0 °F 32.0 °F 73% 30.22 in 7.0 mi NW 18.4 mph 23.0 mph N/A   Overcast
4:15 PM 40.1 °F 30.7 °F 32.0 °F 73% 30.20 in 7.0 mi NNW 19.6 mph 26.5 mph N/A   Overcast
4:35 PM 39.4 °F 30.4 °F 31.5 °F 73% 30.23 in 7.0 mi NW 17.3 mph 24.2 mph N/A   Overcast
4:55 PM 39.4 °F 30.1 °F 31.1 °F 72% 30.23 in 7.0 mi NNW 18.4 mph 21.9 mph N/A   Overcast
5:15 PM 39.2 °F 29.6 °F 31.1 °F 73% 30.23 in 7.0 mi NNW 19.6 mph - N/A   Overcast
5:35 PM 39.2 °F 30.8 °F 30.7 °F 72% 30.23 in 10.0 mi North 15.0 mph 19.6 mph N/A   Overcast
5:55 PM 39.4 °F 30.7 °F 30.6 °F 71% 30.25 in 10.0 mi North 16.1 mph - N/A   Overcast
6:15 PM 38.8 °F 29.7 °F 30.6 °F 72% 30.25 in 10.0 mi North 17.3 mph - N/A   Overcast
6:35 PM 38.3 °F 29.3 °F 30.7 °F 74% 30.28 in 10.0 mi NNW 16.1 mph 20.7 mph N/A   Overcast
6:55 PM 37.6 °F 30.0 °F 30.9 °F 77% 30.27 in 10.0 mi North 11.5 mph 15.0 mph N/A   Overcast
7:15 PM 37.4 °F 30.3 °F 31.1 °F 78% 30.28 in 10.0 mi North 10.4 mph - N/A   Overcast
7:35 PM 36.9 °F 28.2 °F 31.6 °F 81% - 10.0 mi NNW 13.8 mph - N/A   Overcast
7:55 PM 36.5 °F 28.7 °F 32.0 °F 84% 30.29 in 10.0 mi NNW 11.5 mph - N/A   Overcast
8:15 PM 36.0 °F 26.3 °F 32.0 °F 86% 30.30 in 10.0 mi NNW 16.1 mph - N/A   Overcast
8:35 PM 36.0 °F 28.0 °F 31.5 °F 84% 30.31 in 10.0 mi NNW 11.5 mph 15.0 mph N/A   Overcast
8:55 PM 35.6 °F 25.9 °F 31.5 °F 85% 30.31 in 10.0 mi NNW 16.1 mph - N/A   Overcast
9:10 PM 35.6 °F 27.1 °F 31.5 °F 85% 30.32 in 10.0 mi NNW 12.7 mph - N/A   Overcast
9:35 PM 35.6 °F 28.0 °F 31.6 °F 85% 30.34 in 10.0 mi NW 10.4 mph - N/A   Overcast
9:55 PM 35.2 °F 27.6 °F 30.9 °F 84% 30.34 in 10.0 mi NNW 10.4 mph - N/A   Overcast
10:15 PM 35.2 °F 27.1 °F 30.7 °F 84% 30.34 in 10.0 mi NW 11.5 mph 17.3 mph N/A   Overcast
10:35 PM 35.2 °F 26.6 °F 30.6 °F 83% 30.34 in 10.0 mi NW 12.7 mph - N/A   Overcast
10:55 PM 35.1 °F 26.4 °F 30.6 °F 84% 30.34 in 10.0 mi NNW 12.7 mph - N/A   Overcast
11:15 PM 35.1 °F 27.4 °F 30.6 °F 84% 30.33 in 10.0 mi NW 10.4 mph - N/A   Overcast
11:35 PM 34.9 °F 26.2 °F 30.6 °F 84% 30.33 in 10.0 mi NW 12.7 mph - N/A   Overcast
11:55 PM 34.9 °F 25.7 °F 30.6 °F 84% 30.33 in 10.0 mi NW 13.8 mph - N/A   Overcast